Starlink 3246

operational
NORAD ID: 49732 Int'l Des: 2021-115 Owner: SPXS Country: US Constellation: starlink
LEOCIRCULAR

Starlink 3246について

説明を読み込み中...

リアルタイム位置

3D地球を読み込み中...

次回通過

高度履歴

Altitude vs Time

uPlot chart will show altitude changes over time

軌道要素

1 49732U 21115J 25350.20807189 .00001383 00000-0 10496-3 0 9993
2 49732 53.2162 174.0349 0001432 92.0460 268.0696 15.08839945222785
Epoch: Dec 16, 2025 • Age: 21 hours

現在のステータス

高度 548.2 km
速度 7.59 km/s
衛星直下点 -26.46°S, 39.85°E
打ち上げ日 Dec 2, 2021
運用期間 4 years
タイプ internet

技術仕様

分類 Payload
質量 290.00 kg
乾燥質量 270.00 kg
総質量 290.00 kg
長さ 0.20 m
直径 2.80 m
スパン 9.00 m
形状 Box + pan
製造者 SPXS
バスタイプ Starlink
フェーズステータス In Orbit
所有者/国 SPXS/US

大規模コンステレーション

Loading constellations...